Chicago, IL

6:31 PM CDT on August 21, 2017 (GMT -0500)
George Street | | Change Station

Elev 656 ft 41.94 °N, 87.88 °W | Updated 12 minutes ago

Overcast
Overcast
84.0 °F
Feels Like 88 °F
N
4.3
Wind Variable Wind from SSW
Gusts 9.3 mph

Today
High -- | Low -- °F
--% Chance of Precip.
Yesterday
High -- | Low -- °F
Precip. -- in
Pressure 29.99 in
Visibility 10.0 miles
Clouds Scattered Clouds 4800 ft
Mostly Cloudy 8500 ft
Overcast 10000 ft
Heat Index 88 °F
Dew Point 70 °F
Humidity 62%
Rainfall 0.08 in
Snow Depth Not available.
6:06 AM 7:42 PM
New Moon, 0% visible
METAR KORD 212251Z 23014KT 10SM SCT048 BKN085 OVC100 29/18 A3000 RMK AO2 SLP154 T02890183
Pressure 29.99 in
Visibility 10.0 miles
Clouds Scattered Clouds 4800 ft
Mostly Cloudy 8500 ft
Overcast 10000 ft
Heat Index 88 °F
Dew Point 70 °F
Humidity 62%
Rainfall 0.08 in
Snow Depth Not available.
6:06 AM 7:42 PM
New Moon, 0% visible
METAR KORD 212251Z 23014KT 10SM SCT048 BKN085 OVC100 29/18 A3000 RMK AO2 SLP154 T02890183

Get Severe Weather Alerts

Thanks for signing up!

Be on the lookout for a verification email in your inbox.

You'll start receiving the daily forecast at 6 AM.

×

10-Day Weather Forecast

Almanac

Astronomy

Aug. 21, 2017 Rise Set
Actual Time
Civil Twilight
Nautical Twilight
Astronomical Twilight
Moon
Length of Visible Light
Length of Day
Tomorrow will be .
, % of the Moon is Illuminated

Today's Extremes

State Highs State Lows

Community

WunderPhotos

Category 6

Welcome to Category 6. This is the collective home for Weather Underground's featured writeups by Dr. Jeff Masters (right), Bob Henson (left), Chris Burt, and other regular contributors.

Nearby

Air Quality

  Air Quality AQ Index Pollutant
Not available.

Snow Depth

Station Depth Elevation

Earthquake Activity

City Distance Mag. Time & Date
Minimum magnitude displayed is 2.5.

Coastal Water Temperatures

Place Temperature

Stations

Nearby Weather Stations

Station Location Temp. Windchill Dew Point Humidity Wind Precip. Elev Updated Type
                   

Watches & Warnings

There are currently no watches in effect.